Theta_e
321 315 308 311 303 303 300 304 308 303 305 310 315 314 312 314 312 306 328 330 335 339 341 342 344 345 345 344 344 343 344 343 342 339 336 334 332 332 331 329 329 328 328 328 326 325 324 323 322
318 313 310 304 297 296 294 303 302 305 307 313 313 314 312 311 320 322 325 328 333 339 341 341 340 344 344 343 342 342 342 340 338 335 333 331 330 330 328 327 326 326 326 325 324 323 322 321 321
308 310 303 298 295 293 293 297 301 303 306 306 308 313 312 313 320 322 325 328 331 334 340 339 340 342 342 340 339 338 337 336 334 332 330 329 328 327 326 325 324 323 323 323 322 321 320 319 319
301 303 299 292 290 291 293 294 297 301 303 305 311 308 315 322 322 323 325 325 326 326 334 339 341 340 339 338 337 336 334 332 330 329 328 327 326 325 323 322 322 321 320 320 319 318 318 317 317
302 297 291 288 289 291 292 296 297 299 299 301 307 306 311 321 322 322 322 323 322 323 325 330 336 336 335 335 333 331 330 329 327 326 325 324 323 322 321 320 320 319 318 318 317 316 315 315 314
297 295 288 286 288 290 291 293 296 298 298 299 303 308 312 322 320 320 321 321 321 320 322 322 324 328 329 329 329 328 326 325 324 323 322 322 320 318 318 317 317 317 316 316 314 313 312 311 311
295 290 287 286 288 289 291 294 293 294 297 298 300 305 313 317 319 319 319 320 320 320 319 319 318 319 321 322 322 322 321 320 319 318 316 315 314 313 313 312 314 314 313 313 312 311 310 311 311
296 291 285 284 285 286 291 293 293 295 295 302 304 304 306 316 319 319 318 318 318 319 318 317 316 314 312 313 317 316 314 313 312 311 311 311 311 309 307 307 308 308 308 309 310 310 310 310 310
297 287 283 284 286 286 291 291 293 294 299 303 305 309 316 319 319 317 316 316 315 315 315 315 315 313 312 309 309 311 310 309 308 306 308 306 302 303 302 304 306 308 308 310 310 310 309 308 305
293 286 285 287 286 286 289 289 289 291 293 300 305 314 316 315 318 317 316 314 313 312 312 311 311 310 309 310 306 302 301 300 299 300 299 300 299 298 302 302 306 306 307 306 307 307 306 301 295
291 288 290 289 290 290 289 289 290 289 288 291 299 308 310 309 309 314 315 315 315 314 313 312 310 308 304 302 300 299 299 300 300 300 300 300 300 298 298 296 296 295 300 295 296 295 294 294 294
289 291 292 292 292 290 288 290 288 288 288 297 301 309 308 308 307 308 311 313 315 316 314 313 307 305 303 301 299 299 298 299 299 300 300 298 297 297 296 295 294 294 295 293 293 292 293 293 294
289 290 292 292 292 290 291 288 286 286 288 299 307 308 307 307 308 309 311 309 309 309 310 314 310 306 304 302 300 299 298 298 298 298 299 298 296 295 295 295 294 294 294 293 293 292 292 292 293
291 291 291 292 292 291 290 288 288 287 289 298 304 306 306 307 307 302 301 299 300 301 301 302 303 306 306 301 300 300 299 299 297 297 297 298 297 295 295 295 295 294 294 294 293 293 292 292 292
291 288 289 291 291 290 290 288 287 289 290 295 303 305 305 300 299 297 299 299 299 300 300 300 302 302 301 303 302 301 300 301 298 298 297 298 298 296 295 294 294 294 294 294 294 293 293 291 292
288 287 283 289 289 291 290 283 287 289 287 289 300 300 296 296 296 296 297 297 297 297 298 299 301 300 300 300 302 302 301 299 299 298 298 298 298 298 295 294 294 295 294 294 293 292 291 291 290
285 279 283 286 288 287 287 283 286 288 288 287 293 293 293 293 294 295 296 295 295 296 296 297 298 298 299 300 302 301 302 299 298 298 298 298 298 298 296 295 294 295 294 293 293 292 290 290 290
280 280 284 282 285 285 283 281 283 284 285 284 287 289 290 291 291 293 294 294 294 294 295 296 297 297 298 299 299 300 299 299 298 297 298 299 299 300 299 298 295 295 293 293 292 291 290 290 289
285 283 280 283 285 281 280 279 281 283 283 283 283 285 287 288 291 292 292 292 292 293 293 294 294 295 296 296 295 296 296 296 297 297 299 298 298 299 297 296 294 294 293 292 292 291 290 289 289
282 280 277 281 284 282 279 278 280 282 281 281 282 282 284 286 287 289 289 289 289 289 289 291 292 293 294 294 295 294 294 294 296 297 299 300 299 298 298 296 296 294 293 293 292 291 290 289 289
279 278 276 278 281 281 278 277 279 281 282 282 281 281 282 283 283 284 285 284 285 286 286 288 289 290 291 292 293 293 293 293 293 294 296 298 298 298 297 297 296 295 293 293 292 291 290 288 289
280 281 280 280 273 271 277 270 276 278 278 279 279 278 279 280 282 283 283 283 284 284 285 286 287 287 288 289 289 288 288 288 290 292 294 295 297 297 297 297 296 295 294 293 293 293 291 289 288
280 281 280 278 273 272 274 269 274 277 276 277 277 278 278 279 280 281 282 283 284 284 284 284 285 286 286 286 286 286 285 287 288 289 289 291 293 295 296 296 295 294 293 292 292 291 290 290 290
283 280 279 276 272 267 266 268 272 275 277 276 277 278 278 279 279 280 282 283 283 283 283 283 284 284 285 285 285 284 283 284 284 284 285 288 290 291 293 295 295 295 294 292 292 292 291 291 290
279 274 268 269 267 270 261 268 275 276 277 277 277 277 277 278 278 279 279 280 281 281 282 283 283 283 284 284 284 284 283 283 282 283 283 284 286 288 290 291 292 293 295 294 293 292 291 291 290
278 274 269 263 266 269 262 267 274 276 277 278 278 278 278 278 278 278 279 279 279 280 280 281 282 282 282 282 282 283 283 283 282 282 282 283 284 287 289 290 290 290 292 292 292 290 289 288 288
277 270 275 264 257 263 270 274 277 277 275 276 276 277 275 277 278 278 278 279 279 279 280 281 281 281 281 281 281 281 282 282 282 282 282 282 283 285 287 288 288 288 288 287 288 287 287 287 286
278 278 270 268 263 261 267 263 274 271 270 272 275 275 276 277 277 278 278 278 279 280 280 280 280 279 280 280 280 281 281 281 281 281 281 281 282 282 283 285 287 287 286 286 285 284 284 284 284
272 271 271 271 272 265 261 269 270 270 270 269 269 275 271 273 276 277 277 278 279 279 279 278 278 278 279 279 280 280 280 280 280 280 280 281 281 281 281 283 285 285 285 285 284 283 283 283 283
277 276 275 269 265 267 268 270 271 266 267 265 269 273 273 271 275 276 276 277 278 278 278 278 278 278 279 279 279 279 279 279 279 279 279 280 280 281 281 282 284 284 284 285 284 283 283 282 282
Wind_Speed
10 10 2 4 5 5 1 4 2 4 3 4 5 5 7 7 4 5 1 9 12 5 4 4 5 6 8 9 10 9 13 15 13 9 8 6 8 8 9 8 8 8 9 9 10 9 9 10 10
6 6 4 2 5 4 2 3 4 2 4 7 6 3 7 6 4 4 2 12 11 6 5 6 9 14 15 15 15 15 14 14 8 8 8 7 8 7 8 7 7 7 8 8 8 9 9 10 10
6 0 4 4 3 4 4 2 3 2 3 2 4 7 3 3 3 3 4 8 6 9 5 7 12 16 17 17 17 14 11 10 9 6 7 7 8 7 7 7 7 7 7 8 8 8 9 9 10
3 5 5 6 5 4 3 2 4 1 4 7 4 7 4 4 2 3 5 8 9 9 9 10 14 17 16 15 15 13 11 9 7 7 7 6 7 7 7 7 7 7 7 8 9 9 9 9 9
4 4 5 4 3 2 1 2 3 3 3 6 2 3 4 3 5 5 6 7 8 8 9 11 15 15 15 14 14 12 10 9 7 7 6 6 6 7 6 7 7 7 8 8 8 9 9 9 9
5 4 5 3 3 2 3 6 3 4 5 3 5 5 2 5 4 5 6 7 8 8 8 8 13 14 14 12 12 10 9 8 7 6 6 6 6 6 7 6 6 7 8 8 8 8 8 8 9
7 5 3 4 5 3 5 7 4 1 4 5 1 4 3 2 4 5 6 6 7 7 7 8 7 8 11 10 10 9 8 7 7 7 6 7 6 6 7 8 8 8 8 8 9 9 9 9 9
5 5 4 4 2 1 6 4 2 4 2 2 4 3 3 3 5 5 5 5 5 5 4 4 5 5 5 5 8 7 6 5 5 5 5 5 5 5 5 5 6 7 8 8 9 9 9 10 10
3 7 3 1 1 1 6 3 7 4 5 5 6 4 6 9 6 3 3 3 3 3 3 3 3 3 2 1 3 4 4 4 4 4 5 5 3 2 4 4 6 8 9 11 10 11 11 11 10
6 5 2 2 1 1 3 3 4 4 3 4 6 7 4 3 4 3 2 2 2 1 0 2 1 1 1 0 1 2 3 3 3 3 3 3 3 3 3 4 7 8 8 9 10 10 10 7 4
4 4 5 1 2 2 2 4 5 4 3 0 3 7 4 3 2 3 5 3 1 1 1 1 1 1 2 2 2 2 2 2 3 4 3 3 3 3 3 3 3 4 5 3 5 5 4 5 4
7 5 3 0 3 1 2 5 3 3 2 4 3 7 4 5 4 5 4 3 2 3 4 3 3 2 2 1 2 3 2 2 3 4 4 2 3 4 3 3 4 3 3 4 4 3 5 6 6
6 2 3 1 4 3 2 3 2 1 1 5 8 7 6 5 5 6 6 10 10 11 9 6 5 5 4 3 3 3 3 3 4 3 4 3 3 3 4 4 3 4 4 3 4 5 5 5 6
3 4 4 6 7 4 5 3 2 1 3 6 8 7 7 7 7 9 11 10 11 10 10 9 10 9 6 5 5 4 3 4 3 4 5 5 3 3 4 4 4 4 3 4 4 4 4 5 5
5 4 3 9 8 4 4 7 9 10 3 5 7 7 11 11 12 9 8 11 10 9 10 12 11 10 9 7 6 4 4 3 4 4 5 6 5 5 5 4 4 4 3 5 4 4 4 4 4
4 5 4 5 11 5 4 2 10 16 4 7 8 11 12 10 8 8 11 11 11 11 12 11 10 12 11 9 7 4 4 3 4 4 4 6 6 6 5 4 4 5 4 3 3 4 4 4 4
8 2 4 3 6 5 7 3 9 14 13 11 10 10 9 9 12 11 10 9 9 8 9 11 10 12 11 10 8 6 5 4 4 4 4 6 7 6 5 4 5 5 4 4 3 3 2 4 4
3 4 4 3 8 7 8 6 8 11 16 10 9 8 8 9 8 7 9 8 7 8 7 8 8 11 10 7 7 6 5 5 5 4 5 7 5 6 5 4 5 4 4 4 3 3 2 4 5
2 2 2 2 4 5 3 4 6 6 10 10 9 7 7 8 6 8 10 8 9 10 11 10 11 11 9 7 8 7 7 6 4 5 7 7 6 7 6 4 5 5 4 5 5 3 4 3 2
8 4 5 6 3 3 2 4 4 4 4 5 6 7 7 7 9 9 10 11 11 11 12 14 13 12 9 8 6 3 5 4 5 4 7 7 7 8 6 6 5 6 4 6 5 5 3 3 3
2 4 3 6 7 1 2 2 5 0 4 6 7 5 7 7 8 8 10 9 9 12 11 12 13 12 11 12 8 8 6 5 4 9 9 10 11 9 7 7 6 6 5 6 6 5 6 5 3
1 2 2 3 4 3 2 6 6 5 4 5 6 7 7 7 6 7 8 10 10 10 10 11 13 13 13 14 12 12 7 9 10 9 9 10 11 12 10 9 8 8 6 7 8 6 7 5 7
2 3 2 2 3 4 4 4 4 5 3 3 3 4 5 6 6 8 9 9 9 10 9 10 12 12 13 14 12 10 12 10 10 11 15 14 11 10 11 11 11 9 7 7 8 7 6 6 6
3 3 4 3 4 4 5 5 5 7 7 5 2 4 5 6 7 6 6 8 9 8 9 10 12 11 12 12 13 12 13 13 12 13 13 12 12 11 12 11 11 12 11 10 9 10 9 9 7
7 7 6 8 7 6 2 1 9 2 3 7 7 5 4 5 7 7 9 10 11 11 11 10 12 13 12 12 12 12 13 13 14 14 12 16 13 12 13 14 12 11 13 13 10 9 9 9 7
4 5 7 5 3 6 2 7 5 3 5 6 5 4 2 5 4 6 7 7 8 9 9 8 12 12 12 13 14 12 13 10 10 12 13 12 13 13 16 15 14 14 14 12 10 7 6 5 6
4 5 1 6 2 4 4 7 1 3 2 2 3 1 2 3 4 6 7 6 7 7 8 7 11 11 12 13 12 14 14 15 14 16 15 12 15 14 18 18 16 15 12 9 8 5 5 5 4
4 2 4 4 4 7 7 7 7 7 8 5 4 4 6 5 6 6 6 7 6 8 7 7 9 10 12 12 12 12 13 14 15 15 16 17 17 18 19 19 16 14 11 10 7 5 5 6 4
2 2 4 3 4 5 4 9 6 8 9 8 7 7 7 8 7 7 7 8 8 7 7 7 8 11 11 11 12 13 13 14 14 14 16 16 17 18 18 19 18 14 9 10 8 6 6 6 6
2 5 4 6 7 4 3 12 2 5 6 5 7 7 7 5 7 8 8 8 9 9 9 8 9 12 11 11 12 13 14 14 14 15 17 17 18 18 18 18 17 13 9 10 8 8 7 8 7
Wind_Direction
324 312 316 27 62 69 39 287 360 2 63 335 345 81 96 10 67 144 99 5 333 338 36 31 73 87 87 91 97 96 91 91 81 84 93 85 92 85 78 71 64 57 55 57 50 39 36 36 33
323 329 35 70 90 94 342 356 65 332 132 127 90 54 29 51 24 69 13 342 336 29 46 60 74 84 83 78 83 87 82 85 92 93 94 93 82 81 81 74 67 59 57 53 49 42 34 28 25
311 53 71 83 79 113 115 359 257 79 83 163 94 53 51 29 30 37 347 335 356 25 38 72 79 85 82 83 84 84 79 90 90 92 94 86 83 72 60 57 58 56 50 48 42 39 31 26 20
11 10 31 78 98 16 99 288 306 156 11 39 118 71 74 25 21 4 356 0 41 27 27 72 83 85 83 86 91 91 98 96 95 91 88 78 80 75 63 52 43 39 40 40 34 27 25 19 13
35 56 61 79 60 97 21 269 349 63 81 8 108 121 67 67 74 42 31 30 40 36 38 43 66 78 82 83 82 84 92 88 82 79 68 69 57 57 51 42 34 27 24 25 24 19 14 9 5
45 89 64 106 109 339 341 0 38 36 8 9 71 95 86 93 68 44 48 45 41 43 39 42 50 59 68 76 84 83 83 83 80 68 61 59 53 40 34 28 28 23 12 11 12 12 4 358 2
101 78 123 111 142 37 324 326 56 44 6 14 24 74 107 94 94 84 61 55 49 38 41 34 36 43 61 61 68 73 65 62 60 66 52 46 38 30 29 14 7 7 9 359 356 358 355 352 345
97 87 65 25 156 94 321 14 1 60 38 37 359 122 169 136 119 94 73 65 66 62 32 53 35 45 37 24 48 53 65 59 65 61 34 21 21 26 7 9 356 356 351 349 346 349 348 342 348
82 62 65 64 112 232 332 58 343 302 66 44 12 66 107 125 138 119 102 63 57 54 70 51 41 58 64 47 47 38 43 23 21 4 343 353 343 319 330 337 341 341 341 339 328 341 349 348 346
63 81 150 247 218 134 336 57 305 46 14 45 61 83 95 147 167 171 128 93 84 47 94 111 136 243 272 290 357 337 325 320 312 316 326 331 321 296 323 324 317 325 325 330 337 336 339 343 326
26 112 170 326 327 307 9 358 321 128 45 247 169 163 167 153 137 90 76 65 143 198 242 208 232 305 327 315 315 327 309 309 309 308 309 303 322 324 333 326 325 322 325 330 332 332 325 315 312
91 31 109 94 356 28 356 304 40 49 130 152 127 141 132 124 95 73 64 0 352 242 219 205 219 226 239 276 297 288 288 292 293 292 287 313 318 315 310 303 299 301 310 311 314 311 308 310 307
74 163 70 124 34 36 330 27 331 47 127 102 113 106 117 119 80 40 27 19 29 28 11 328 326 308 290 270 286 299 291 296 294 298 296 302 291 292 297 292 302 299 308 299 311 316 310 308 308
110 88 58 18 5 42 27 326 31 268 129 134 124 128 118 97 67 47 40 26 22 23 14 1 5 357 319 299 293 272 270 280 294 287 278 285 274 281 288 294 291 292 283 290 294 295 298 295 299
132 69 35 17 339 31 314 25 14 341 322 142 127 100 68 61 56 51 43 41 27 21 8 9 2 1 358 330 290 277 275 285 280 278 287 280 270 269 280 284 291 280 284 291 299 302 302 305 306
42 45 46 5 4 341 62 73 339 335 333 40 88 72 72 55 53 40 36 38 27 20 14 2 360 358 350 338 323 309 307 302 287 282 281 269 263 257 261 268 277 289 282 288 297 294 295 292 293
13 86 24 44 41 318 38 32 346 1 54 42 67 71 67 56 44 38 37 35 27 16 8 3 356 357 350 347 352 352 335 317 300 288 281 269 257 249 237 242 255 266 267 275 271 277 239 289 291
324 11 351 36 343 21 19 39 357 6 54 46 58 58 61 61 43 39 31 25 16 7 2 3 0 0 354 354 352 353 349 339 323 309 283 278 266 257 241 249 257 257 264 270 268 263 270 255 273
213 111 347 72 31 40 59 88 36 5 56 52 44 47 52 50 21 33 26 14 11 13 7 7 6 360 3 358 358 351 342 319 317 307 305 296 281 270 252 250 255 255 251 251 255 256 263 281 256
30 40 343 286 345 47 86 95 56 25 63 86 78 53 55 54 40 31 26 19 16 13 8 8 3 357 356 356 343 319 316 304 292 308 314 305 299 276 257 246 251 246 249 255 248 235 262 256 221
54 141 222 221 333 20 114 266 180 129 90 70 50 60 43 47 37 20 19 10 8 12 3 5 0 359 1 353 344 345 333 323 329 334 322 319 315 293 261 250 241 245 228 245 237 226 210 234 265
194 205 265 286 33 200 20 264 222 179 114 65 49 45 40 32 23 21 13 11 6 2 359 2 1 2 3 358 355 352 345 331 324 314 307 307 307 302 282 263 247 238 238 234 241 233 223 191 237
312 333 301 48 65 29 339 68 298 137 157 139 89 85 57 36 25 14 7 2 354 357 357 356 359 356 356 356 357 349 343 328 322 321 318 312 304 295 295 282 271 260 240 235 232 241 226 215 232
298 48 43 65 104 22 252 122 241 198 190 155 135 65 40 27 16 10 359 1 357 353 359 355 355 348 349 349 347 342 332 329 329 328 321 317 311 305 299 288 283 271 256 241 235 235 230 230 227
31 44 345 354 5 229 359 13 252 62 102 150 162 134 71 31 21 4 357 353 347 346 345 347 349 339 337 335 332 329 324 325 321 320 317 316 309 302 298 295 289 289 274 259 244 233 232 231 233
9 116 144 242 267 287 351 248 288 83 88 102 101 122 76 29 6 358 347 332 327 332 333 332 336 326 330 332 332 330 327 323 320 319 316 309 306 303 298 292 285 282 280 267 254 241 233 230 236
328 38 120 96 74 40 274 295 264 94 2 127 148 114 352 329 326 333 322 321 315 314 312 311 322 321 324 324 325 325 325 322 318 316 314 311 310 310 306 298 292 283 270 257 246 241 236 227 228
128 169 28 8 340 306 287 275 247 235 227 257 216 255 271 277 291 303 313 317 304 291 290 300 305 308 313 315 315 315 315 315 315 314 312 311 311 311 310 302 291 281 269 261 244 234 221 219 217
9 4 47 120 146 199 287 259 208 220 193 203 242 264 267 273 278 285 302 292 284 286 290 293 296 306 305 304 308 313 314 314 313 311 309 307 308 308 309 304 295 281 270 269 245 234 231 223 216
240 210 168 127 266 233 182 269 274 187 187 186 243 264 279 262 276 281 284 292 293 297 301 301 299 304 301 306 309 313 315 314 311 311 310 307 305 307 307 306 301 281 275 271 249 243 225 223 225